Time,TemperatureF,DewpointF,PressureIn,WindDirection,WindDirectionDegrees,WindSpeedMPH,WindSpeedGustMPH,Humidity,HourlyPrecipIn,Conditions,Clouds,dailyrainin,SoftwareType,DateUTC
2013-01-25 00:03:00,11.0,1.0,-100.00,East,85,3.0,5.0,64,0.00,,,-99.99,,2013-01-25 05:03:00,
2013-01-25 00:12:00,9.0,1.0,-100.00,East,100,2.0,5.0,66,0.00,,,-99.99,,2013-01-25 05:12:00,
2013-01-25 00:22:00,10.0,1.0,-100.00,East,100,2.0,4.0,67,0.00,,,-99.99,,2013-01-25 05:22:00,
2013-01-25 00:32:00,10.0,1.0,-100.00,ESE,105,2.0,5.0,66,0.00,,,-99.99,,2013-01-25 05:32:00,
2013-01-25 00:43:00,10.0,1.0,-100.00,ESE,105,2.0,5.0,65,0.00,,,-99.99,,2013-01-25 05:43:00,
2013-01-25 00:52:00,10.0,1.0,-100.00,East,100,2.0,4.0,65,0.00,,,-99.99,,2013-01-25 05:52:00,
2013-01-25 01:02:00,10.0,1.0,-100.00,ESE,115,2.0,4.0,66,0.00,,,-99.99,,2013-01-25 06:02:00,
2013-01-25 01:11:00,10.0,1.0,-100.00,ESE,110,2.0,3.0,66,0.00,,,-99.99,,2013-01-25 06:11:00,
2013-01-25 01:21:00,10.0,1.0,-100.00,ESE,120,1.0,3.0,66,0.00,,,-99.99,,2013-01-25 06:21:00,
2013-01-25 01:32:00,10.0,2.0,-100.00,SE,135,0.0,2.0,69,0.00,,,-99.99,,2013-01-25 06:32:00,
2013-01-25 01:42:00,10.0,2.0,-100.00,SE,125,1.0,2.0,70,0.00,,,-99.99,,2013-01-25 06:42:00,
2013-01-25 01:52:00,10.0,2.0,-100.00,ESE,120,2.0,3.0,70,0.00,,,-99.99,,2013-01-25 06:52:00,
2013-01-25 02:02:00,10.0,2.0,-100.00,SE,135,2.0,4.0,69,0.00,,,-99.99,,2013-01-25 07:02:00,
2013-01-25 02:11:00,11.0,2.0,-100.00,SE,135,2.0,5.0,67,0.00,,,-99.99,,2013-01-25 07:11:00,
2013-01-25 02:21:00,11.0,2.0,-100.00,SE,130,2.0,3.0,68,0.00,,,-99.99,,2013-01-25 07:21:00,
2013-01-25 02:32:00,11.0,2.0,-100.00,SE,140,2.0,3.0,68,0.00,,,-99.99,,2013-01-25 07:32:00,
2013-01-25 02:42:00,11.0,2.0,-100.00,SE,140,4.0,5.0,67,0.00,,,-99.99,,2013-01-25 07:42:00,
2013-01-25 02:51:00,11.0,2.0,-100.00,SE,135,3.0,5.0,68,0.00,,,-99.99,,2013-01-25 07:51:00,
2013-01-25 03:02:00,11.0,2.0,-100.00,SE,125,3.0,6.0,68,0.00,,,-99.99,,2013-01-25 08:02:00,
2013-01-25 03:11:00,11.0,2.0,-100.00,SE,140,4.0,5.0,68,0.00,,,-99.99,,2013-01-25 08:11:00,
2013-01-25 03:21:00,11.0,2.0,-100.00,SE,125,4.0,6.0,68,0.00,,,-99.99,,2013-01-25 08:21:00,
2013-01-25 03:32:00,11.0,3.0,-100.00,SE,135,4.0,6.0,69,0.00,,,-99.99,,2013-01-25 08:32:00,
2013-01-25 03:41:00,11.0,2.0,-100.00,SE,135,4.0,6.0,67,0.00,,,-99.99,,2013-01-25 08:41:00,
2013-01-25 03:52:00,11.0,3.0,-100.00,SE,145,1.0,6.0,68,0.00,,,-99.99,,2013-01-25 08:52:00,
2013-01-25 04:02:00,11.0,3.0,-100.00,SE,145,4.0,6.0,68,0.00,,,-99.99,,2013-01-25 09:02:00,
2013-01-25 04:11:00,11.0,3.0,-100.00,SE,140,4.0,7.0,68,0.00,,,-99.99,,2013-01-25 09:11:00,
2013-01-25 04:21:00,11.0,3.0,-100.00,SE,125,4.0,6.0,69,0.00,,,-99.99,,2013-01-25 09:21:00,
2013-01-25 04:32:00,11.0,3.0,-100.00,ESE,120,2.0,6.0,69,0.00,,,-99.99,,2013-01-25 09:32:00,
2013-01-25 04:42:00,11.0,3.0,-100.00,SE,140,5.0,7.0,68,0.00,,,-99.99,,2013-01-25 09:42:00,
2013-01-25 04:51:00,11.0,3.0,-100.00,South,175,3.0,6.0,69,0.00,,,-99.99,,2013-01-25 09:51:00,
2013-01-25 05:02:00,11.0,3.0,-100.00,SE,140,4.0,6.0,68,0.00,,,-99.99,,2013-01-25 10:02:00,
2013-01-25 05:12:00,12.0,4.0,-100.00,SE,145,2.0,5.0,69,0.00,,,-99.99,,2013-01-25 10:12:00,
2013-01-25 05:21:00,11.0,3.0,-100.00,SE,140,5.0,6.0,68,0.00,,,-99.99,,2013-01-25 10:21:00,
2013-01-25 05:32:00,11.0,3.0,-100.00,ESE,120,3.0,6.0,68,0.00,,,-99.99,,2013-01-25 10:32:00,
2013-01-25 05:42:00,12.0,3.0,-100.00,SE,140,4.0,6.0,67,0.00,,,-99.99,,2013-01-25 10:42:00,
2013-01-25 05:51:00,12.0,3.0,-100.00,ESE,120,4.0,6.0,67,0.00,,,-99.99,,2013-01-25 10:51:00,
2013-01-25 06:03:00,12.0,2.0,-100.00,SE,125,4.0,7.0,66,0.00,,,-99.99,,2013-01-25 11:03:00,
2013-01-25 06:11:00,12.0,3.0,-100.00,ESE,105,3.0,6.0,66,0.00,,,-99.99,,2013-01-25 11:11:00,
2013-01-25 06:22:00,12.0,3.0,-100.00,ESE,105,3.0,6.0,67,0.00,,,-99.99,,2013-01-25 11:22:00,
2013-01-25 06:33:00,12.0,3.0,-100.00,SE,125,5.0,6.0,67,0.00,,,-99.99,,2013-01-25 11:33:00,
2013-01-25 06:42:00,12.0,3.0,-100.00,ESE,110,4.0,6.0,67,0.00,,,-99.99,,2013-01-25 11:42:00,
2013-01-25 06:52:00,12.0,3.0,-100.00,East,100,6.0,9.0,67,0.00,,,-99.99,,2013-01-25 11:52:00,
2013-01-25 07:02:00,12.0,3.0,-100.00,SE,135,6.0,9.0,68,0.00,,,-99.99,,2013-01-25 12:02:00,
2013-01-25 07:12:00,12.0,4.0,-100.00,SE,125,7.0,11.0,68,0.00,,,-99.99,,2013-01-25 12:12:00,
2013-01-25 07:22:00,12.0,3.0,-100.00,SE,125,9.0,12.0,68,0.00,,,-99.99,,2013-01-25 12:22:00,
2013-01-25 07:32:00,12.0,4.0,-100.00,SE,130,6.0,14.0,69,0.00,,,-99.99,,2013-01-25 12:32:00,
2013-01-25 07:42:00,12.0,3.0,-100.00,ESE,110,7.0,11.0,67,0.00,,,-99.99,,2013-01-25 12:42:00,
2013-01-25 07:53:00,12.0,3.0,-100.00,ESE,110,7.0,10.0,68,0.00,,,-99.99,,2013-01-25 12:53:00,
2013-01-25 08:03:00,12.0,3.0,-100.00,East,95,6.0,9.0,68,0.00,,,-99.99,,2013-01-25 13:03:00,
2013-01-25 08:12:00,12.0,4.0,-100.00,ESE,115,5.0,11.0,70,0.00,,,-99.99,,2013-01-25 13:12:00,
2013-01-25 08:22:00,12.0,5.0,-100.00,ESE,110,4.0,11.0,73,0.55,,,-99.99,,2013-01-25 13:22:00,
2013-01-25 08:32:00,11.0,6.0,-100.00,ESE,120,5.0,10.0,78,0.55,,,-99.99,,2013-01-25 13:32:00,
2013-01-25 08:42:00,11.0,7.0,-100.00,SE,135,2.0,7.0,82,2.83,,,-99.99,,2013-01-25 13:42:00,
2013-01-25 09:03:00,11.0,7.0,-100.00,SE,130,6.0,8.0,84,0.55,,,-99.99,,2013-01-25 14:03:00,
2013-01-25 09:12:00,11.0,8.0,-100.00,SE,145,3.0,7.0,84,0.00,,,-99.99,,2013-01-25 14:12:00,
2013-01-25 09:23:00,12.0,8.0,-100.00,South,170,2.0,5.0,84,0.00,,,-99.99,,2013-01-25 14:23:00,
2013-01-25 09:33:00,12.0,8.0,-100.00,SE,140,4.0,6.0,83,0.00,,,-99.99,,2013-01-25 14:33:00,
2013-01-25 09:42:00,12.0,8.0,-100.00,SSE,155,2.0,6.0,83,0.55,,,-99.99,,2013-01-25 14:42:00,
2013-01-25 09:52:00,12.0,8.0,-100.00,SE,130,4.0,6.0,83,0.00,,,-99.99,,2013-01-25 14:52:00,
2013-01-25 10:03:00,12.0,8.0,-100.00,SE,135,6.0,8.0,83,0.55,,,-99.99,,2013-01-25 15:03:00,
2013-01-25 10:12:00,12.0,8.0,-100.00,ESE,115,4.0,7.0,84,1.69,,,-99.99,,2013-01-25 15:12:00,
2013-01-25 10:22:00,12.0,8.0,-100.00,SE,125,7.0,10.0,84,1.10,,,-99.99,,2013-01-25 15:22:00,
2013-01-25 10:33:00,11.0,8.0,-100.00,SE,135,6.0,11.0,84,1.69,,,-99.99,,2013-01-25 15:33:00,
2013-01-25 10:42:00,11.0,8.0,-100.00,ESE,115,8.0,11.0,84,1.10,,,-99.99,,2013-01-25 15:42:00,
2013-01-25 10:52:00,12.0,8.0,-100.00,East,100,5.0,11.0,85,1.69,,,-99.99,,2013-01-25 15:52:00,
2013-01-25 11:03:00,12.0,8.0,-100.00,East,100,7.0,11.0,85,0.55,,,-99.99,,2013-01-25 16:03:00,
2013-01-25 11:12:00,12.0,8.0,-100.00,ESE,105,6.0,9.0,84,1.69,,,-99.99,,2013-01-25 16:12:00,
2013-01-25 11:23:00,12.0,8.0,-100.00,East,90,6.0,12.0,84,1.10,,,-99.99,,2013-01-25 16:23:00,
2013-01-25 11:33:00,12.0,8.0,-100.00,East,85,6.0,10.0,84,1.10,,,-99.99,,2013-01-25 16:33:00,
2013-01-25 11:43:00,12.0,8.0,-100.00,East,100,6.0,8.0,85,1.69,,,-99.99,,2013-01-25 16:43:00,
2013-01-25 11:52:00,12.0,9.0,-100.00,SE,125,6.0,9.0,85,2.24,,,-99.99,,2013-01-25 16:52:00,
2013-01-25 12:03:00,12.0,9.0,-100.00,SE,125,7.0,9.0,84,1.10,,,-99.99,,2013-01-25 17:03:00,
2013-01-25 12:12:00,13.0,9.0,-100.00,SE,135,4.0,8.0,84,2.24,,,-99.99,,2013-01-25 17:12:00,
2013-01-25 12:22:00,13.0,9.0,-100.00,SE,140,6.0,7.0,83,2.24,,,-99.99,,2013-01-25 17:22:00,
2013-01-25 12:33:00,13.0,8.0,-100.00,ESE,120,7.0,10.0,82,0.00,,,-99.99,,2013-01-25 17:33:00,
2013-01-25 12:43:00,13.0,9.0,-100.00,SE,125,6.0,9.0,82,0.55,,,-99.99,,2013-01-25 17:43:00,
2013-01-25 12:52:00,13.0,9.0,-100.00,East,80,3.0,6.0,83,1.10,,,-99.99,,2013-01-25 17:52:00,
2013-01-25 13:03:00,13.0,9.0,-100.00,SE,135,6.0,9.0,83,0.00,,,-99.99,,2013-01-25 18:03:00,
2013-01-25 13:12:00,14.0,9.0,-100.00,East,95,1.0,8.0,82,0.55,,,-99.99,,2013-01-25 18:12:00,
2013-01-25 13:23:00,14.0,9.0,-100.00,ENE,75,2.0,6.0,82,1.10,,,-99.99,,2013-01-25 18:23:00,
2013-01-25 13:33:00,14.0,9.0,-100.00,ESE,115,4.0,6.0,83,3.94,,,-99.99,,2013-01-25 18:33:00,
2013-01-25 13:42:00,14.0,10.0,-100.00,East,95,2.0,6.0,83,3.39,,,-99.99,,2013-01-25 18:42:00,
2013-01-25 13:52:00,14.0,10.0,-100.00,East,95,3.0,7.0,83,4.53,,,-99.99,,2013-01-25 18:52:00,
2013-01-25 14:03:00,14.0,10.0,-100.00,SE,125,2.0,4.0,83,1.69,,,-99.99,,2013-01-25 19:03:00,
2013-01-25 14:12:00,14.0,10.0,-100.00,ESE,110,2.0,5.0,83,0.55,,,-99.99,,2013-01-25 19:12:00,
2013-01-25 14:22:00,15.0,10.0,-100.00,ESE,110,2.0,5.0,82,0.55,,,-99.99,,2013-01-25 19:22:00,
2013-01-25 14:33:00,15.0,10.0,-100.00,ESE,110,2.0,5.0,82,0.55,,,-99.99,,2013-01-25 19:33:00,
2013-01-25 14:42:00,15.0,10.0,-100.00,East,90,2.0,5.0,82,2.83,,,-99.99,,2013-01-25 19:42:00,
2013-01-25 14:52:00,15.0,11.0,-100.00,East,90,2.0,3.0,81,2.83,,,-99.99,,2013-01-25 19:52:00,
2013-01-25 15:03:00,15.0,11.0,-100.00,East,90,2.0,5.0,82,0.55,,,-99.99,,2013-01-25 20:03:00,
2013-01-25 15:12:00,15.0,11.0,-100.00,ESE,105,4.0,6.0,81,1.10,,,-99.99,,2013-01-25 20:12:00,
2013-01-25 15:22:00,15.0,11.0,-100.00,SE,135,3.0,6.0,80,1.10,,,-99.99,,2013-01-25 20:22:00,
2013-01-25 15:32:00,16.0,11.0,-100.00,East,95,2.0,5.0,79,0.00,,,-99.99,,2013-01-25 20:32:00,
2013-01-25 15:42:00,16.0,11.0,-100.00,ESE,115,1.0,3.0,78,0.00,,,-99.99,,2013-01-25 20:42:00,
2013-01-25 15:52:00,16.0,11.0,-100.00,ESE,120,2.0,4.0,78,0.00,,,-99.99,,2013-01-25 20:52:00,
2013-01-25 16:02:00,16.0,11.0,-100.00,East,90,1.0,5.0,77,0.55,,,-99.99,,2013-01-25 21:02:00,
2013-01-25 16:12:00,16.0,11.0,-100.00,ESE,120,2.0,4.0,77,0.00,,,-99.99,,2013-01-25 21:12:00,
2013-01-25 16:23:00,17.0,11.0,-100.00,East,100,1.0,4.0,78,0.55,,,-99.99,,2013-01-25 21:23:00,
2013-01-25 16:33:00,16.0,11.0,-100.00,SE,130,2.0,4.0,78,0.00,,,-99.99,,2013-01-25 21:33:00,
2013-01-25 16:42:00,16.0,11.0,-100.00,SE,125,3.0,5.0,78,0.00,,,-99.99,,2013-01-25 21:42:00,
2013-01-25 16:52:00,16.0,11.0,-100.00,SE,130,3.0,4.0,78,0.00,,,-99.99,,2013-01-25 21:52:00,
2013-01-25 17:03:00,17.0,11.0,-100.00,SSE,165,1.0,4.0,78,0.00,,,-99.99,,2013-01-25 22:03:00,
2013-01-25 17:12:00,16.0,11.0,-100.00,South,180,1.0,4.0,78,0.00,,,-99.99,,2013-01-25 22:12:00,
2013-01-25 17:22:00,16.0,11.0,-100.00,South,175,0.0,4.0,78,0.00,,,-99.99,,2013-01-25 22:22:00,
2013-01-25 17:33:00,16.0,11.0,-100.00,SSE,155,0.0,3.0,78,0.00,,,-99.99,,2013-01-25 22:33:00,
2013-01-25 17:42:00,16.0,11.0,-100.00,SSE,165,0.0,2.0,79,0.00,,,-99.99,,2013-01-25 22:42:00,
2013-01-25 17:52:00,16.0,11.0,-100.00,SSE,160,0.0,2.0,80,0.00,,,-99.99,,2013-01-25 22:52:00,
2013-01-25 18:02:00,16.0,11.0,-100.00,South,175,0.0,0.0,80,0.00,,,-99.99,,2013-01-25 23:02:00,
2013-01-25 18:12:00,16.0,11.0,-100.00,South,190,0.0,0.0,79,0.00,,,-99.99,,2013-01-25 23:12:00,
2013-01-25 18:22:00,16.0,11.0,-100.00,SSW,195,0.0,0.0,80,0.00,,,-99.99,,2013-01-25 23:22:00,
2013-01-25 18:32:00,16.0,11.0,-100.00,SSW,210,0.0,0.0,79,0.00,,,-99.99,,2013-01-25 23:32:00,
2013-01-25 18:42:00,16.0,11.0,-100.00,SW,225,0.0,0.0,80,0.00,,,-99.99,,2013-01-25 23:42:00,
2013-01-25 18:52:00,16.0,11.0,-100.00,SW,230,0.0,2.0,80,0.00,,,-99.99,,2013-01-25 23:52:00,
2013-01-25 19:02:00,16.0,11.0,-100.00,SW,230,0.0,0.0,80,0.00,,,-99.99,,2013-01-26 00:02:00,
2013-01-25 19:11:00,16.0,11.0,-100.00,SSW,205,0.0,0.0,81,0.00,,,-99.99,,2013-01-26 00:11:00,
2013-01-25 19:22:00,16.0,11.0,-100.00,SSW,205,0.0,0.0,81,0.00,,,-99.99,,2013-01-26 00:22:00,
2013-01-25 19:32:00,16.0,12.0,-100.00,SSW,205,0.0,0.0,81,0.00,,,-99.99,,2013-01-26 00:32:00,
2013-01-25 19:42:00,16.0,12.0,-100.00,SSW,205,0.0,0.0,81,0.00,,,-99.99,,2013-01-26 00:42:00,
2013-01-25 19:52:00,16.0,11.0,-100.00,SSW,205,0.0,0.0,81,0.00,,,-99.99,,2013-01-26 00:52:00,
2013-01-25 20:02:00,16.0,12.0,-100.00,SW,215,0.0,0.0,82,0.00,,,-99.99,,2013-01-26 01:02:00,
2013-01-25 20:11:00,16.0,12.0,-100.00,SW,220,0.0,1.0,82,0.00,,,-99.99,,2013-01-26 01:11:00,
2013-01-25 20:22:00,16.0,12.0,-100.00,SW,235,0.0,0.0,82,0.00,,,-99.99,,2013-01-26 01:22:00,
2013-01-25 20:32:00,16.0,12.0,-100.00,SW,225,0.0,1.0,82,0.00,,,-99.99,,2013-01-26 01:32:00,
2013-01-25 20:42:00,16.0,12.0,-100.00,SW,230,0.0,0.0,82,0.00,,,-99.99,,2013-01-26 01:42:00,
2013-01-25 20:52:00,16.0,12.0,-100.00,SW,230,0.0,3.0,82,0.00,,,-99.99,,2013-01-26 01:52:00,
2013-01-25 21:02:00,16.0,12.0,-100.00,WSW,250,1.0,3.0,82,0.00,,,-99.99,,2013-01-26 02:02:00,
2013-01-25 21:11:00,16.0,12.0,-100.00,WSW,240,2.0,4.0,83,0.00,,,-99.99,,2013-01-26 02:11:00,
2013-01-25 21:22:00,16.0,12.0,-100.00,SW,235,1.0,4.0,82,0.00,,,-99.99,,2013-01-26 02:22:00,
2013-01-25 21:32:00,16.0,12.0,-100.00,SW,220,2.0,4.0,83,0.00,,,-99.99,,2013-01-26 02:32:00,
2013-01-25 21:42:00,16.0,12.0,-100.00,SW,225,1.0,3.0,83,0.00,,,-99.99,,2013-01-26 02:42:00,
2013-01-25 21:52:00,16.0,12.0,-100.00,SW,235,0.0,3.0,83,0.00,,,-99.99,,2013-01-26 02:52:00,
2013-01-25 22:02:00,16.0,12.0,-100.00,SW,225,1.0,4.0,83,0.00,,,-99.99,,2013-01-26 03:02:00,
2013-01-25 22:11:00,16.0,12.0,-100.00,SW,230,2.0,6.0,84,0.00,,,-99.99,,2013-01-26 03:11:00,
2013-01-25 22:22:00,17.0,13.0,-100.00,SW,230,4.0,7.0,84,0.00,,,-99.99,,2013-01-26 03:22:00,
2013-01-25 22:32:00,17.0,13.0,-100.00,WSW,250,7.0,9.0,84,0.55,,,-99.99,,2013-01-26 03:32:00,
2013-01-25 22:43:00,17.0,13.0,-100.00,WSW,250,4.0,7.0,84,0.00,,,-99.99,,2013-01-26 03:43:00,
2013-01-25 22:52:00,17.0,13.0,-100.00,WSW,240,4.0,9.0,85,3.94,,,-99.99,,2013-01-26 03:52:00,
2013-01-25 23:02:00,17.0,13.0,-100.00,WSW,250,4.0,9.0,86,4.53,,,-99.99,,2013-01-26 04:02:00,
2013-01-25 23:12:00,17.0,14.0,-100.00,WSW,255,3.0,8.0,86,2.83,,,-99.99,,2013-01-26 04:12:00,
2013-01-25 23:21:00,17.0,14.0,-100.00,WSW,245,6.0,10.0,87,2.24,,,-99.99,,2013-01-26 04:21:00,
2013-01-25 23:32:00,17.0,14.0,-100.00,WSW,245,4.0,9.0,87,2.83,,,-99.99,,2013-01-26 04:32:00,
2013-01-25 23:42:00,17.0,14.0,-100.00,WSW,245,4.0,9.0,87,2.24,,,-99.99,,2013-01-26 04:42:00,
2013-01-25 23:52:00,17.0,14.0,-100.00,WSW,245,7.0,10.0,87,2.83,,,-99.99,,2013-01-26 04:52:00,